Погода в Сундсвалле

Швеция     62°23′14″N   17°18′49″E
темп.,
°C
ветер,
м/с
пор.,
м/с
влажн.,
%
обл.,
%
осадки,
мм/ч
давл.,
гПа
погр.,
м
7 мая, пт
пт723:000ссз258089 0.1 1002170
02:00−1ссз287877 0.1 1002313
05:00−1ссз396964 0.0 1002442
08:00+3с365623 0.0 10031149
11:00+5с3539100 0.1 10021932
14:00+8ссз3433100 0.1 10022549
17:00+8ссз252998 0.0 10022397
20:00+6сз374591 0.0 1003588
8 мая, сб
сб823:00+1зсз226529 0.0 100535
02:00−1зсз22735 0.0 100535
05:00−1зсз23835 0.0 100665
08:00+4зсз47510 0.0 1006895
11:00+8зсз45295 0.0 10062283
14:00+10сз4627100 0.0 10072893
17:00+10сз352586 0.0 10072671
20:00+8юз1339100 0.0 100897
9 мая, вс
вс923:00+3зсз115799 0.0 100910
02:00+1сз2266100 0.0 100924
05:000сз117032 0.0 101018
08:00+6юв1248100 0.0 1009350
11:00+8юв3443100 0.0 1009697
14:00+8юв3445100 0.0 1008743
17:00+8юв3555100 0.0 1007764
20:00+6ююв478198 0.0 1008612
10 мая, пн
пн1023:00+4юв2495100 0.0 1008338
02:00+4вюв1296100 0.0 1008234
05:00+4вюв1397100 0.1 1008218
08:00+4вюв2494100 0.1 1009340
11:00+5вюв2495100 0.1 1009297
14:00+5всв2498100 4.8 1009222
17:00+5всв2698100 7.1 1008299
20:00+5вюв1199100 14.5 100873
11 мая, вт
вт1123:00+5ююв1299100 0.5 100876
02:00+6вюв2499100 1.1 1008206
05:00+5вюв1399100 0.0 1008155
08:00+8ююв1298100 0.0 1009115
11:00+17ююз236567 0.0 1010872
14:00+15юв2363100 0.0 1012544
17:00+16вюв2159100 0.0 1012626
20:00+11вюв128193 0.0 101476